Location: Newark
(54.8333°N, 21.6000°E)
Time: 06:09:05
(UTC+00:00)

Envisat - Visible Passes

Search period start: 20 September 2019 00:00
Search period end: 30 September 2019 00:00
Orbit: 764 x 766 km, 98.1° (Epoch: 19 September)

Date Brightness Start Highest point End Pass type
(mag) Time Alt. Az. Time Alt. Az. Time Alt. Az.
20 Sep 5.6 17:48:12 10° SW 17:52:11 23° W 17:56:13 10° NW visible
21 Sep 4.5 17:10:16 10° SSW 17:15:05 42° W 17:19:56 10° NNW visible
22 Sep 6.0 18:15:14 10° WSW 18:18:04 15° W 18:20:55 10° NW visible
23 Sep 5.3 17:36:30 10° SSW 17:40:49 27° W 17:45:09 10° NNW visible
24 Sep 4.1 16:58:49 10° S 17:03:46 50° W 17:08:44 10° NNW visible
25 Sep 5.9 18:03:13 10° SW 18:06:39 18° W 18:10:05 10° NW visible
26 Sep 5.0 17:24:54 10° SSW 17:29:27 33° W 17:34:03 10° NNW visible
27 Sep 6.3 18:31:03 10° W 18:32:34 11° W 18:34:06 10° WNW visible
28 Sep 5.7 17:51:23 10° SW 17:55:14 21° W 17:59:06 10° NW visible
29 Sep 4.6 17:13:21 10° SSW 17:18:07 39° W 17:22:53 10° NNW visible
